This demonstration page uses our WeatherBlox Daily Observations layout. Learn more.

Hourly Observations for January 5, 2020

Temp ( °F °C ) Dew Point ( °F °C ) Humidity (%) Winds ( mph kmh ) Pressure ( in mb ) Visibility ( mi km ) Precip ( " mm )
12:54 am 00:54 Clear 40 4.4 29 -1.7 65 65 SSW 16 26 29.93 1014 10 16.0934 0 0
1:54 am 01:54 Clear 41 5 30 -1.1 65 65 SW 15 24 29.94 1014 10 16.0934 0 0
2:54 am 02:54 Clear 40 4.4 30 -1.1 68 68 WSW 7 11 29.97 1015 10 16.0934 0 0
3:54 am 03:54 Clear 38 3.3 29 -1.7 70 70 W 7 11 30.01 1016 10 16.0934 0 0
4:54 am 04:54 Clear 43 6.1 30 -1.1 60 60 NW 14 22 30.04 1017 10 16.0934 0 0
5:54 am 05:54 Clear 44 6.7 31 -0.6 60 60 NNW 21 33 30.09 1019 10 16.0934 0 0
6:54 am 06:54 Clear 44 6.7 28 -2.2 53 53 NNW 18 30 30.14 1021 10 16.0934 0 0
7:54 am 07:54 Sunny 43 6.1 23 -5 45 45 NW 17 28 30.19 1022 10 16.0934 0 0
8:54 am 08:54 Sunny 43 6.1 21 -6.1 42 42 NNW 22 35 30.23 1024 10 16.0934 0 0
9:54 am 09:54 Sunny 45 7.2 22 -5.6 40 40 NW 17 28 30.26 1025 10 16.0934 0 0
10:54 am 10:54 Sunny 46 7.8 24 -4.4 42 42 NW 22 35 30.28 1025 10 16.0934 0 0
11:54 am 11:54 Sunny 47 8.3 23 -5 39 39 NNW 21 33 30.29 1026 10 16.0934 0 0
12:54 pm 12:54 Sunny 48 8.9 23 -5 37 37 undefined N/A 30.28 1026 10 16.0934 0 0
1:54 pm 13:54 Sunny 48 8.9 22 -5.6 36 36 undefined N/A 30.29 1026 10 16.0934 0 0
2:54 pm 14:54 Sunny 48 8.9 21 -6.1 34 34 NW 14 22 30.27 1025 10 16.0934 0 0
3:54 pm 15:54 Sunny 47 8.3 21 -6.1 36 36 NNW 16 26 30.28 1026 10 16.0934 0 0
4:54 pm 16:54 Sunny 45 7.2 22 -5.6 40 40 NW 9 15 30.29 1026 10 16.0934 0 0
5:54 pm 17:54 Clear 41 5 22 -5.6 47 47 WNW 3 6 30.28 1025 10 16.0934 0 0
6:54 pm 18:54 Clear 31 -0.6 20 -6.7 64 64 NNW 3 6 30.29 1026 10 16.0934 0 0
7:54 pm 19:54 Clear 27 -2.8 19 -7.2 72 72 N 5 7 30.3 1026 10 16.0934 0 0
8:54 pm 20:54 Clear 32 0 21 -6.1 64 64 NW 3 6 30.3 1026 10 16.0934 0 0
9:54 pm 21:54 Clear 22 -5.6 17 -8.3 82 82 N 6 9 30.31 1027 10 16.0934 0 0
10:54 pm 22:54 Clear 25 -3.9 18 -7.8 75 75 Calm 30.31 1026 10 16.0934 0 0
11:54 pm 23:54 Clear 23 -5 17 -8.3 78 78 Calm 30.31 1026 10 16.0934 0 0

Powered by AerisWeather